Regional Weather Roundup
Issued by NWS Mobile, AL

Home | Current Version | Previous Version | Text Only | Print | Product List | Glossary On
Versions: 1 2 3 4 5 6 7 8 9 10 11 12 13 14 15 16 17 18 19 20 21 22 23 24 25 26 27 28 29 30 31 32 33 34 35 36 37 38 39 40 41 42 43 44 45 46 47 48 49 50
357
ASUS44 KMOB 290112
RWRMOB
REGIONAL WEATHER ROUNDUP
NATIONAL WEATHER SERVICE MOBILE AL
800 PM CDT SAT MAY 28 2016

NOTE: "FAIR" INDICATES FEW OR NO CLOUDS BELOW 12,000 FEET WITH NO
      SIGNIFICANT WEATHER AND/OR OBSTRUCTIONS TO VISIBILITY.

  * THESE STATIONS ARE PART OF THE UNIVERSITY OF SOUTH ALABAMA
    MESONET AND ARE NOT UNDER NWS OR FAA QUALITY CONTROL.

ALZ061>064-290200-
COASTAL ALABAMA

CITY           SKY/WX    TMP DP  RH WIND       PRES   REMARKS
MOBILE REG APT CLOUDY    76  67  73 CALM      30.07R
BROOKLEY FIELD MOCLDY    78  68  71 CALM      30.07R
USA CAMPUS*    NOT AVBL
DOG RIVER*     NOT AVBL


CITY           SKY/WX    TMP DP  RH WIND       PRES   REMARKS
MOUNT VERNON*  NOT AVBL
SARALAND*      NOT AVBL
BAY MINETTE*   NOT AVBL
LOXLEY*        NOT AVBL
ROBERTSDALE*   NOT AVBL
FAIRHOPE*      NOT AVBL
ELBERTA*       NOT AVBL
FOLEY*         NOT AVBL
GRAND BAY*     NOT AVBL
DAUPHIN ISLND* NOT AVBL
BON SCOUR NWR* NOT AVBL
GULF SHORES    CLOUDY    74  70  85 CALM      30.06R

$$

ALZ051>060-290200-
INTERIOR SOUTHWEST AND SOUTH CENTRAL ALABAMA

CITY           SKY/WX    TMP DP  RH WIND       PRES   REMARKS
GREENVILLE     NOT AVBL
EVERGREEN      CLOUDY    78  69  73 S3        30.07R
CASTLEBERRY*   NOT AVBL
ATMORE*        NOT AVBL
DIXIE*         NOT AVBL
ANDALUSIA/OPP  CLOUDY    80  69  69 CALM      30.06S
ANDALUSIA*     NOT AVBL
FLORALA APT    CLOUDY    74  68  81 CALM      30.08R
FLORALA*       NOT AVBL

$$

FLZ001>006-290200-
WESTERN FLORIDA PANHANDLE

CITY           SKY/WX    TMP DP  RH WIND       PRES   REMARKS
PENSACOLA      CLOUDY    78  66  66 S6        30.06R
NAS PENSACOLA  NOT AVBL
MILTON         NOT AVBL
WHTNG S FIELD    N/A    N/A N/A N/A MISG      30.07R


CITY           SKY/WX    TMP DP  RH WIND       PRES   REMARKS
WALNUT HILL*   NOT AVBL
JAY*           NOT AVBL
DUKE FIELD     CLOUDY    80  60  49 SW6       30.05S
CRESTVIEW      MOCLDY    78  70  76 CALM      30.07R
VALPARAISO     MOCLDY    79  64  60 W3        30.06R
DESTIN         CLOUDY    82  69  64 VRB3      30.06R

$$

MSZ076-079-290200-
INTERIOR SOUTHEAST MISSISSIPPI

CITY           SKY/WX    TMP DP  RH WIND       PRES   REMARKS
LEAKESVILLE*   NOT AVBL
AGRICOLA*      NOT AVBL

$$

MARINE OBSERVATIONS

STATION/POSITION TIME  TEMP    WIND        PRES    WAVE
                       AIR SEA DIR/SP/G            HT/PER
                 (UTC) (F)     (DEG/KT/KT) (MB)    (FT/S)
PASCAGOULA       0000          170/  8/ 10   N/A
PETIT BOIS ISLND 0000          180/ 10/ 12   N/A
GRAND BAY        2300   80     160/  5     1019.0S
KATRINA CUT      0000   79     190/  8     1018.0S
CEDAR POINT      0000   79     180/  6     1017.3S
E DAUPHIN ISLAND 0000   79     160/  6/  8 1017.3R
MIDDLE BAY LIGHT 0000   80     170/  7     1018.0R
USCG MOBILE BAY  0000          180/  5/  7   N/A
STATE DOCKS      0000      81              1017.4
MEAHER PARK      0000   79     170/  7     1016.9R
WEEKS BAY        2300   80                   N/A
FORT MORGAN      0000          200/  6/  7   N/A
12 S ORANGE BCH  0050   79 80  150/  2/  4 1017.0R   2/ 5
PENSACOLA BAY    0000          210/  6/  8   N/A
64 S DAUPHIN ISL 0000   79 80   90/  2/  2 1017.5R

$$

SELECTED LOCATIONS ACROSS THE REGION

CITY           SKY/WX    TMP DP  RH WIND       PRES   REMARKS
NEW ORLEANS    CLOUDY    76  68  76 SE8       30.05R
GULFPORT       PTCLDY    77  71  82 S3        30.05R
PASCAGOULA AP  CLOUDY    75  70  84 CALM      30.05R
PASCAGOULA*    NOT AVBL
HATTIESBURG    CLOUDY    79  66  64 S6        30.06R
LAUREL         PTCLDY    79  66  65 S5        30.08R
MERIDIAN       CLOUDY    79  69  71 CALM      30.07R
JACKSON        PTCLDY    78  69  73 SE3       30.05R
MONTGOMERY     CLOUDY    80  69  69 SW3       30.06R
TROY           MOCLDY    79  69  71 CALM      30.07R
KINSTON*       NOT AVBL
GENEVA*        NOT AVBL
ASHFORD*       NOT AVBL
DOTHAN         CLEAR     80  67  64 NW9       30.09R
PANAMA CITY    CLOUDY    78  73  84 SW6       30.06R

$$





USA.gov is the U.S. government's official web portal to all federal, state and local government web resources and services.